NIMBUS 2 DEB, 59971

Orbit data source: Space-Track

NIMBUS 2 DEB, 59971 is space debris in SSO originally from a launch on Sun, 15 May 1966 UTC launched from the Air Force Western Test Range (AFWTR). Debris objects in space refer to the collection of defunct objects orbiting the Earth. Examples of debris include non-operational satellites, rocket bodies, and fragments generated from explosions, collisions, or faulty payload assembly.

Loading next visibility...
Identifier
59971, 1966-040CA
Orbit
SSO
Country
Flag of USUS
Related business
Manufacturer
Unknown
Mission
Spacecraft
Bus & Motor
Unknown
Mass
Unknown
Launch date (UTC)
1966-05-15 (59 years ago)
Launch vehicle
Unknown
Launch site
Air Force Western Test Range (AFWTR)
Object type
Payload
Rocket body
Debris
Shape & HBR
Unknown shape, 0.1 m
Radar Cross Section
Small (<0.1 m²)

Expand to show TLE details & history
Last TLE update: 1 day ago

TLE from 1 day ago
0 NIMBUS 2 DEB
1 59971U 66040CA  25290.03975580  .00002109  00000-0  39428-2 0  9992
2 59971 100.4498 126.5872 0054475 109.2716 251.4313 13.39737903226757
Epoch: 2025-10-17T00:57Z
TLE epoch observation values (Epoch: 2025-10-17T00:57:14.901Z)
Latitude
-0.00002°
Longitude
86.48427°
Altitude
1,126.192 km
Speed
7.283 km/s
True Right ascension
08h 26m 20s
True Declination
0° 00' 00"
Sunlit
Object was in daylight at epoch
Visualization orbit readout
Latitude
Unknown
Longitude
Unknown
Altitude
Unknown
Speed
Unknown
Apparent Right ascension
Unknown
Apparent Declination
Unknown
Sunlit
N/A
Visualization observer readout
Local Sidereal Time
20:01:52
Azimuth
Unknown
Elevation
Unknown
Doppler factor
Unknown
Orbital elements
Apogee altitude
1,148.389 km
Perigee altitude
1,066.832 km
Semi-major axis
7,485.747 km
Eccentricity
0.00545
Inclination
100.4498°
RAAN
126.5872°
Arg. of periapsis
109.2716°
True anomaly
250.84085°
Mean anomaly
251.4313°
Eccentric anomaly
251.13595°
Mean motion
3.35112 °/min
Orbital period
107.43 mins
BSTAR
0.0039428
Loading maneuver chart data...
Computing Atmospheric mass density...
Loading historical data...
Loading historical data...
Loading historical data...
Loading historical data...
Loading historical data...
Loading historical data...
Loading historical data...

Documentation

Showing up to 5 results
|